Cloud_Cover
100 100 100 75 37 62 52 35 27 32 25 24 17 86 100 100 100 100 100 100 100 100 100 100 100 100 100 100 100 100 100 100 85 97 78 100 83 13 5 5 35 42 53
100 100 99 65 97 74 13 10 7 2 6 4 4 5 96 59 100 100 100 100 100 100 100 100 100 100 100 100 100 100 100 100 100 100 94 100 100 96 7 75 99 50 35
28 99 100 14 63 100 100 68 100 76 4 2 3 0 4 54 100 100 100 100 100 100 100 100 100 100 100 100 100 100 100 100 100 100 100 100 100 92 64 10 100 55 33
5 5 5 5 48 60 5 5 5 4 5 11 4 0 0 4 5 100 100 52 100 100 100 100 100 100 100 100 100 100 100 100 100 100 100 100 100 100 100 19 100 100 94
2 5 5 4 0 4 5 9 0 2 4 6 0 0 0 4 5 5 57 92 98 100 100 100 100 100 100 100 100 100 100 100 100 100 100 100 100 100 99 100 54 100 100
5 5 5 1 2 5 5 5 49 1 0 3 0 1 2 1 4 3 8 25 80 27 89 100 100 100 100 100 100 100 100 100 100 100 100 100 100 100 100 100 84 100 92
5 5 5 5 24 100 48 100 5 5 0 0 8 0 0 0 0 11 59 88 100 100 100 100 95 100 100 100 100 100 100 100 100 100 100 100 73 100 100 100 100 30 100
5 5 10 76 65 55 5 5 34 49 57 6 21 43 20 2 0 0 0 26 82 95 92 100 100 100 100 100 100 100 100 100 100 100 100 100 100 100 100 100 100 100 100
5 5 5 5 5 4 24 80 77 72 67 44 24 94 58 30 4 0 22 9 50 46 24 25 100 100 100 100 100 100 100 100 100 100 100 100 100 100 100 100 100 100 100
5 5 5 5 14 56 97 100 100 100 100 100 89 100 100 100 85 17 5 33 25 100 96 5 5 12 73 74 100 100 100 100 100 100 100 100 100 100 100 100 100 100 100
5 5 5 5 73 100 100 100 100 100 100 100 100 100 100 100 100 99 86 7 22 70 98 100 67 4 96 67 80 100 100 100 100 100 100 100 100 100 100 100 100 100 100
5 5 5 6 96 100 100 100 100 100 100 100 100 100 100 100 100 100 100 100 100 90 37 100 94 16 80 98 96 100 100 100 100 100 100 100 100 100 100 100 100 100 100
5 5 6 5 44 90 93 100 100 100 100 100 100 100 100 100 100 100 100 100 100 100 93 100 100 92 65 100 96 100 100 100 100 100 100 100 100 100 100 100 100 100 100
11 5 5 5 53 47 20 63 100 100 100 100 98 100 100 100 100 100 100 100 100 100 100 100 98 64 75 92 18 12 78 96 100 100 100 100 100 100 100 100 100 100 100
48 100 41 98 86 98 52 6 99 100 24 78 85 72 88 100 100 100 100 100 100 100 100 100 100 99 96 16 65 99 76 96 100 100 100 100 100 100 100 100 100 100 100
81 100 100 98 85 28 38 6 20 100 15 56 54 45 61 69 97 100 100 100 100 100 100 100 100 100 92 100 56 98 100 100 100 100 100 100 100 100 100 100 100 100 100
100 100 100 91 21 5 5 5 5 64 11 5 66 38 62 75 97 100 100 100 100 100 100 100 100 100 100 100 100 99 100 100 100 100 100 100 100 100 100 100 100 100 100
100 100 26 5 5 5 5 5 7 5 77 97 99 95 98 100 100 100 100 100 100 100 100 100 100 100 100 100 100 100 90 100 100 100 100 100 100 100 100 100 100 100 100
24 5 5 5 18 7 5 5 7 78 94 100 100 100 100 100 100 100 100 100 100 100 100 100 100 100 99 100 100 100 100 100 100 100 100 100 100 100 100 100 100 100 100
48 7 5 68 94 5 7 60 97 98 100 100 96 100 100 100 100 100 100 100 100 100 100 100 100 100 76 42 52 98 100 100 100 100 100 100 100 100 74 100 100 100 100
5 5 13 97 100 78 58 92 100 100 100 100 100 100 100 100 100 100 100 100 100 100 100 100 100 100 100 95 100 96 97 45 100 100 100 100 100 100 100 100 100 100 100
5 5 62 98 99 96 89 98 100 100 100 59 100 100 100 100 100 100 100 100 100 100 100 100 100 100 100 100 100 100 100 88 78 6 70 100 100 98 55 97 100 100 100
5 5 5 9 89 96 88 100 100 100 100 96 99 100 100 100 100 100 100 100 100 100 100 100 100 100 100 100 100 100 100 100 100 73 9 27 76 100 100 79 100 100 100
49 44 11 5 86 99 91 100 100 100 100 100 100 100 100 100 100 100 100 100 100 100 100 100 100 100 100 100 96 100 100 100 100 100 100 95 7 32 20 7 5 100 100
8 75 73 5 5 100 99 100 100 100 100 100 100 100 100 100 100 100 100 100 100 100 100 100 100 100 99 100 100 100 100 100 100 100 96 100 76 13 96 59 5 6 100
73 7 6 38 93 99 100 99 100 100 100 100 100 98 100 100 100 100 100 100 100 100 100 100 100 94 100 89 97 53 100 100 100 100 91 94 21 83 9 86 100 14 49